Tracking 20037 objects as of 20-Nov-2019
Live streaming from Space Station
objects crossing your sky now

COSMOS 1321

Track COSMOS 1321 now!
10-day predictions
COSMOS 1321 is classified as:


NORAD ID: 12976
Int'l Code: 1981-116B
Perigee: 1,489.2 km
Apogee: 1,637.7 km
Inclination: 74.0 °
Period: 117.2 minutes
Semi major axis: 7934 km
RCS: 0.6999 m2 (medium)
Launch date: November 28, 1981
Source: Commonwealth of Independent States (former USSR) (CIS)
Launch site: PLESETSK MISSILE AND SPACE COMPLEX (PKMTR)
aabbcc
Your satellite tracking list
Your tracking list is empty




NASA's NSSDC Master Catalog

Two Line Element Set (TLE):
1 12976U 81116B   19323.87651030 -.00000010 +00000-0 +38488-4 0  9997
2 12976 073.9826 239.2689 0093605 118.0335 308.8664 12.28366406702872
Source of the keplerian elements: AFSPC